QPF
0.00 0.00 0.00 0.00 0.00 0.00 0.00 0.00 0.00 0.00 0.00 0.00 0.00 0.00 0.00 0.00 0.00 0.00 0.00 0.00 0.00 0.00 0.00 0.00 0.00 0.00 0.00 0.00 0.00 0.00 0.00 0.00 0.00 0.00 0.00 0.00 0.00 0.00 0.00 0.00 0.00 0.00 0.00 0.00
0.00 0.00 0.00 0.00 0.00 0.00 0.00 0.00 0.00 0.00 0.00 0.00 0.00 0.00 0.00 0.00 0.00 0.00 0.00 0.00 0.00 0.00 0.00 0.00 0.00 0.00 0.00 0.00 0.00 0.00 0.00 0.00 0.00 0.00 0.00 0.00 0.00 0.00 0.00 0.01 0.01 0.01 0.01 0.01
0.00 0.00 0.00 0.00 0.00 0.00 0.00 0.00 0.00 0.00 0.00 0.00 0.00 0.00 0.00 0.00 0.00 0.00 0.00 0.00 0.00 0.00 0.00 0.00 0.00 0.00 0.00 0.00 0.00 0.00 0.00 0.00 0.00 0.00 0.00 0.00 0.00 0.00 0.01 0.01 0.01 0.02 0.02 0.03
0.00 0.00 0.00 0.00 0.00 0.00 0.00 0.00 0.00 0.00 0.00 0.00 0.00 0.00 0.00 0.00 0.00 0.00 0.00 0.00 0.00 0.00 0.00 0.00 0.00 0.00 0.00 0.00 0.00 0.00 0.00 0.00 0.00 0.00 0.00 0.00 0.00 0.00 0.00 0.01 0.02 0.02 0.02 0.02
0.00 0.00 0.00 0.00 0.00 0.00 0.00 0.00 0.00 0.00 0.00 0.00 0.00 0.00 0.00 0.00 0.00 0.00 0.00 0.00 0.00 0.00 0.00 0.00 0.00 0.00 0.00 0.00 0.00 0.00 0.00 0.00 0.00 0.00 0.00 0.00 0.00 0.00 0.00 0.00 0.01 0.01 0.00 0.00
0.00 0.00 0.00 0.00 0.00 0.00 0.00 0.00 0.00 0.00 0.00 0.00 0.00 0.00 0.00 0.00 0.00 0.00 0.00 0.00 0.00 0.00 0.00 0.00 0.00 0.00 0.00 0.00 0.00 0.00 0.00 0.00 0.00 0.00 0.00 0.00 0.00 0.00 0.00 0.00 0.01 0.00 0.00 0.00
0.00 0.00 0.00 0.00 0.00 0.00 0.00 0.00 0.00 0.00 0.00 0.00 0.00 0.00 0.00 0.00 0.00 0.00 0.00 0.00 0.00 0.00 0.00 0.00 0.00 0.00 0.00 0.00 0.00 0.00 0.00 0.00 0.00 0.00 0.00 0.00 0.00 0.00 0.00 0.00 0.00 0.00 0.00 0.00
0.00 0.00 0.00 0.00 0.00 0.00 0.00 0.00 0.00 0.00 0.00 0.00 0.00 0.00 0.00 0.00 0.00 0.00 0.00 0.00 0.00 0.00 0.00 0.00 0.00 0.00 0.00 0.00 0.00 0.00 0.00 0.00 0.00 0.00 0.00 0.00 0.00 0.00 0.00 0.00 0.00 0.00 0.00 0.00
0.00 0.00 0.00 0.00 0.00 0.00 0.00 0.00 0.00 0.00 0.00 0.00 0.00 0.00 0.00 0.00 0.00 0.00 0.00 0.00 0.00 0.00 0.00 0.00 0.00 0.00 0.00 0.00 0.00 0.00 0.00 0.00 0.00 0.00 0.00 0.00 0.00 0.00 0.00 0.00 0.00 0.00 0.00 0.00
0.00 0.00 0.00 0.00 0.00 0.00 0.00 0.00 0.00 0.00 0.00 0.00 0.00 0.00 0.00 0.00 0.00 0.00 0.00 0.00 0.00 0.00 0.00 0.00 0.00 0.00 0.00 0.00 0.00 0.00 0.00 0.00 0.00 0.00 0.00 0.00 0.00 0.00 0.00 0.00 0.00 0.00 0.00 0.00
0.00 0.00 0.00 0.00 0.00 0.00 0.00 0.00 0.00 0.00 0.00 0.00 0.00 0.00 0.00 0.00 0.00 0.00 0.00 0.00 0.00 0.00 0.00 0.00 0.00 0.00 0.00 0.00 0.00 0.00 0.00 0.00 0.00 0.00 0.00 0.00 0.00 0.00 0.00 0.00 0.00 0.00 0.00 0.00
0.00 0.00 0.00 0.00 0.00 0.00 0.00 0.00 0.00 0.00 0.00 0.00 0.00 0.00 0.00 0.00 0.00 0.00 0.00 0.00 0.00 0.00 0.00 0.00 0.00 0.00 0.00 0.00 0.00 0.00 0.00 0.00 0.00 0.00 0.00 0.00 0.00 0.00 0.00 0.00 0.00 0.00 0.00 0.00
0.00 0.00 0.00 0.00 0.00 0.00 0.00 0.00 0.00 0.00 0.00 0.00 0.00 0.00 0.00 0.00 0.00 0.00 0.00 0.00 0.00 0.00 0.00 0.00 0.00 0.00 0.00 0.00 0.00 0.00 0.00 0.00 0.00 0.00 0.00 0.00 0.00 0.00 0.00 0.00 0.00 0.00 0.00 0.00
0.00 0.00 0.00 0.00 0.00 0.00 0.00 0.00 0.00 0.00 0.00 0.00 0.00 0.00 0.00 0.00 0.00 0.00 0.00 0.00 0.00 0.00 0.00 0.00 0.00 0.00 0.00 0.00 0.00 0.00 0.00 0.00 0.00 0.00 0.00 0.00 0.00 0.00 0.00 0.00 0.00 0.00 0.00 0.00
0.00 0.00 0.00 0.00 0.00 0.00 0.00 0.00 0.00 0.00 0.00 0.00 0.00 0.00 0.00 0.00 0.00 0.00 0.00 0.00 0.00 0.00 0.00 0.00 0.00 0.00 0.00 0.00 0.00 0.00 0.00 0.00 0.00 0.00 0.00 0.00 0.00 0.00 0.00 0.00 0.00 0.00 0.00 0.00
0.00 0.00 0.00 0.00 0.00 0.00 0.00 0.00 0.00 0.00 0.00 0.00 0.00 0.00 0.00 0.00 0.00 0.00 0.00 0.00 0.00 0.00 0.00 0.00 0.00 0.00 0.00 0.00 0.00 0.00 0.00 0.00 0.00 0.00 0.00 0.00 0.00 0.00 0.00 0.00 0.00 0.00 0.00 0.00
0.00 0.00 0.00 0.00 0.00 0.00 0.00 0.00 0.00 0.00 0.00 0.00 0.00 0.00 0.00 0.00 0.00 0.00 0.00 0.00 0.00 0.00 0.00 0.00 0.00 0.00 0.00 0.00 0.00 0.00 0.00 0.00 0.00 0.00 0.00 0.00 0.00 0.00 0.00 0.00 0.00 0.00 0.00 0.00
0.00 0.00 0.00 0.00 0.00 0.01 0.01 0.00 0.00 0.00 0.00 0.00 0.00 0.00 0.00 0.00 0.00 0.00 0.00 0.00 0.00 0.00 0.00 0.00 0.00 0.00 0.00 0.00 0.00 0.00 0.00 0.00 0.00 0.00 0.00 0.00 0.00 0.00 0.00 0.00 0.00 0.00 0.00 0.00
0.00 0.00 0.00 0.00 0.00 0.00 0.00 0.00 0.00 0.00 0.00 0.00 0.00 0.00 0.00 0.00 0.00 0.00 0.00 0.00 0.00 0.00 0.00 0.00 0.00 0.00 0.00 0.00 0.00 0.00 0.00 0.00 0.00 0.00 0.00 0.00 0.00 0.00 0.00 0.00 0.00 0.00 0.00 0.00
0.00 0.00 0.00 0.00 0.00 0.00 0.00 0.00 0.00 0.00 0.00 0.00 0.00 0.00 0.00 0.00 0.00 0.00 0.00 0.00 0.00 0.00 0.00 0.00 0.00 0.00 0.00 0.00 0.00 0.00 0.00 0.00 0.00 0.00 0.00 0.00 0.00 0.00 0.00 0.00 0.00 0.00 0.00 0.00
0.00 0.00 0.00 0.00 0.00 0.00 0.00 0.00 0.00 0.00 0.00 0.00 0.00 0.00 0.00 0.00 0.00 0.00 0.00 0.00 0.00 0.00 0.00 0.00 0.00 0.00 0.00 0.00 0.00 0.00 0.00 0.00 0.00 0.00 0.00 0.00 0.00 0.00 0.00 0.00 0.00 0.00 0.00 0.00
0.00 0.00 0.00 0.00 0.00 0.00 0.00 0.00 0.00 0.00 0.00 0.00 0.00 0.00 0.00 0.00 0.00 0.00 0.00 0.00 0.00 0.00 0.00 0.00 0.00 0.00 0.00 0.00 0.00 0.00 0.00 0.00 0.00 0.00 0.00 0.00 0.00 0.00 0.00 0.00 0.00 0.00 0.00 0.00
0.00 0.00 0.00 0.00 0.00 0.00 0.00 0.00 0.00 0.00 0.00 0.00 0.00 0.00 0.00 0.00 0.00 0.00 0.00 0.00 0.00 0.00 0.00 0.00 0.00 0.00 0.00 0.00 0.00 0.00 0.00 0.00 0.00 0.00 0.00 0.00 0.00 0.00 0.00 0.00 0.00 0.00 0.00 0.00
0.00 0.00 0.00 0.00 0.00 0.00 0.00 0.00 0.00 0.00 0.00 0.00 0.00 0.00 0.00 0.00 0.00 0.00 0.00 0.00 0.00 0.00 0.00 0.00 0.00 0.00 0.00 0.00 0.00 0.00 0.00 0.00 0.00 0.00 0.00 0.00 0.00 0.00 0.00 0.00 0.00 0.00 0.00 0.00
0.00 0.00 0.00 0.00 0.00 0.00 0.00 0.00 0.00 0.00 0.00 0.00 0.00 0.00 0.00 0.00 0.00 0.00 0.00 0.00 0.00 0.00 0.00 0.00 0.00 0.00 0.00 0.00 0.00 0.00 0.00 0.00 0.00 0.00 0.00 0.00 0.00 0.00 0.00 0.00 0.00 0.01 0.00 0.00
0.00 0.00 0.00 0.00 0.00 0.00 0.00 0.00 0.00 0.00 0.00 0.00 0.00 0.00 0.00 0.00 0.00 0.00 0.00 0.00 0.00 0.00 0.00 0.00 0.00 0.00 0.00 0.00 0.00 0.00 0.00 0.00 0.00 0.00 0.00 0.00 0.00 0.00 0.00 0.01 0.01 0.01 0.00 0.00
MSLP
1017.04 1017.37 1016.54 1017.26 1016.79 1018.11 1018.15 1018.16 1017.75 1017.27 1016.86 1017.09 1017.21 1017.15 1017.09 1017.43 1018.16 1018.66 1018.94 1018.97 1018.93 1018.55 1018.15 1018.21 1018.15 1018.55 1019.06 1019.33 1019.57 1019.86 1020.39 1020.83 1021.49 1022.09 1022.60 1022.82 1022.85 1023.22 1023.45 1023.60 1023.73 1023.86 1024.15 1024.37
1017.11 1015.62 1016.86 1017.31 1017.32 1018.05 1018.04 1017.67 1017.60 1017.35 1017.26 1017.42 1017.47 1017.38 1017.19 1017.52 1017.61 1017.78 1018.02 1018.44 1018.41 1018.41 1018.37 1018.22 1018.19 1018.42 1018.65 1018.82 1019.04 1019.49 1019.75 1020.25 1020.66 1021.27 1021.78 1022.10 1022.19 1022.59 1022.79 1023.09 1023.41 1023.57 1023.76 1023.95
1016.31 1016.14 1016.77 1016.87 1017.59 1017.92 1017.92 1017.08 1017.45 1017.34 1017.65 1018.14 1017.94 1017.92 1017.25 1017.07 1017.26 1017.69 1017.71 1017.79 1018.14 1018.06 1018.14 1018.29 1018.31 1018.45 1018.61 1018.72 1018.77 1019.04 1019.36 1019.84 1020.22 1020.62 1021.28 1021.94 1022.14 1022.37 1022.70 1023.01 1023.26 1023.41 1023.43 1023.49
1017.18 1016.57 1016.78 1017.07 1017.21 1017.43 1017.47 1017.14 1017.62 1017.81 1018.23 1018.49 1018.27 1018.03 1017.38 1016.87 1016.94 1017.29 1017.32 1017.54 1017.50 1017.54 1017.81 1017.94 1018.39 1018.49 1018.66 1018.92 1018.82 1018.97 1019.21 1019.67 1020.13 1020.46 1020.95 1021.39 1021.87 1022.22 1022.36 1022.58 1022.78 1022.89 1023.36 1023.67
1015.80 1016.11 1016.65 1016.76 1016.13 1017.14 1017.54 1017.26 1017.86 1018.46 1018.71 1018.83 1019.19 1019.21 1017.19 1017.04 1016.89 1016.88 1016.79 1016.85 1016.78 1017.06 1017.50 1017.84 1018.22 1018.52 1018.86 1019.33 1019.23 1019.19 1019.27 1019.53 1019.80 1020.19 1020.50 1020.91 1021.38 1021.70 1021.87 1022.59 1023.30 1023.86 1024.21 1024.36
1015.69 1015.60 1015.86 1015.61 1016.28 1017.26 1017.47 1017.95 1018.56 1019.31 1019.71 1019.80 1018.79 1018.91 1017.24 1016.67 1016.21 1015.95 1015.60 1016.00 1016.27 1016.72 1017.43 1018.02 1018.33 1018.49 1018.91 1019.26 1019.59 1019.65 1019.66 1019.62 1019.61 1019.93 1020.10 1020.44 1020.81 1021.57 1022.02 1022.85 1023.72 1024.33 1024.66 1024.93
1015.57 1015.43 1015.34 1015.35 1016.25 1016.88 1016.98 1017.76 1019.24 1020.14 1020.68 1019.40 1019.20 1019.01 1016.63 1015.51 1015.27 1015.32 1015.13 1015.34 1015.83 1016.42 1017.26 1018.00 1018.52 1018.73 1018.94 1019.24 1019.54 1019.65 1019.65 1019.66 1019.40 1019.43 1019.75 1020.08 1020.57 1021.14 1021.92 1022.85 1023.77 1024.49 1024.97 1025.39
1015.08 1015.65 1015.06 1014.64 1014.81 1015.30 1015.82 1016.73 1018.02 1018.88 1020.56 1020.31 1019.91 1018.10 1015.53 1014.48 1014.46 1014.98 1014.86 1015.10 1015.65 1016.40 1017.00 1017.70 1018.29 1018.62 1018.84 1019.16 1019.48 1019.53 1019.41 1019.58 1019.39 1019.23 1019.50 1019.93 1020.64 1021.04 1022.24 1022.92 1023.84 1024.70 1025.32 1025.89
1013.99 1014.49 1014.35 1014.66 1014.41 1014.56 1015.79 1016.23 1016.79 1018.61 1020.80 1020.48 1019.01 1017.39 1015.53 1014.46 1014.56 1014.50 1014.88 1015.45 1015.37 1015.95 1016.56 1017.31 1018.13 1018.76 1019.01 1019.29 1019.53 1019.56 1019.42 1019.65 1019.58 1019.56 1019.79 1020.33 1020.97 1021.24 1022.43 1023.33 1024.13 1024.82 1025.56 1026.12
1012.83 1014.43 1014.59 1014.76 1014.51 1014.53 1014.21 1015.18 1016.61 1017.91 1019.61 1019.95 1018.76 1017.53 1015.41 1014.52 1014.31 1014.05 1014.48 1014.70 1015.17 1016.00 1016.64 1017.37 1018.29 1018.84 1019.14 1019.33 1019.61 1019.73 1019.73 1019.97 1020.08 1020.07 1020.20 1020.73 1021.48 1021.62 1022.61 1023.51 1024.72 1025.13 1025.69 1026.17
1012.48 1012.89 1015.14 1015.04 1014.52 1014.25 1014.73 1014.73 1015.62 1016.51 1017.94 1018.30 1018.18 1016.25 1014.12 1013.38 1012.94 1012.99 1013.10 1014.36 1015.51 1016.07 1016.81 1017.51 1018.49 1019.15 1019.26 1019.35 1019.76 1019.89 1020.04 1020.26 1020.52 1020.67 1020.98 1021.48 1022.01 1022.36 1023.25 1023.92 1025.05 1025.55 1026.02 1026.52
1012.15 1012.89 1014.54 1014.61 1014.44 1014.41 1014.16 1013.88 1014.48 1015.72 1016.88 1017.51 1017.22 1014.69 1012.92 1012.71 1012.92 1012.91 1013.57 1014.41 1015.37 1016.30 1017.18 1017.82 1018.75 1019.17 1019.53 1019.62 1020.00 1020.19 1020.33 1020.52 1020.76 1020.91 1021.30 1021.80 1022.22 1022.93 1023.84 1024.73 1025.38 1025.97 1026.53 1026.88
1011.21 1012.40 1014.19 1014.94 1015.01 1014.69 1014.13 1013.91 1013.67 1014.51 1015.62 1016.23 1016.58 1013.21 1012.60 1012.66 1012.74 1012.63 1013.39 1014.37 1015.15 1016.21 1017.31 1018.01 1018.63 1019.08 1019.33 1019.69 1020.18 1020.53 1020.77 1021.06 1021.26 1021.26 1021.60 1022.19 1022.75 1023.34 1024.07 1025.15 1025.79 1026.37 1026.87 1027.27
1010.48 1011.80 1012.40 1012.93 1012.50 1013.28 1014.23 1013.90 1013.92 1014.28 1015.23 1014.92 1013.78 1012.85 1012.71 1012.51 1012.57 1012.81 1013.62 1014.45 1015.41 1016.21 1016.78 1017.57 1018.39 1018.83 1019.48 1019.79 1020.09 1020.48 1020.95 1021.32 1021.59 1021.64 1022.12 1022.65 1023.23 1023.71 1024.42 1025.43 1026.21 1026.78 1027.35 1027.74
1010.84 1011.88 1012.58 1012.64 1012.43 1012.46 1012.63 1012.86 1013.17 1013.62 1013.14 1013.54 1010.51 1012.11 1011.88 1011.80 1011.90 1012.57 1013.47 1014.31 1015.05 1015.74 1016.36 1017.00 1017.74 1018.50 1019.07 1019.51 1019.93 1020.44 1020.88 1021.39 1021.67 1022.09 1022.63 1023.14 1023.55 1024.25 1024.91 1025.56 1026.32 1026.94 1027.48 1027.98
1011.36 1012.12 1012.68 1013.28 1013.14 1012.90 1012.70 1012.50 1012.75 1012.44 1012.24 1011.17 1011.46 1010.37 1010.95 1011.32 1012.03 1012.68 1013.05 1013.90 1014.56 1014.93 1015.48 1016.15 1016.74 1017.39 1018.11 1018.72 1019.13 1019.78 1020.42 1021.12 1021.69 1022.50 1023.11 1023.43 1023.73 1024.42 1025.19 1025.75 1026.33 1026.90 1027.67 1027.91
1011.49 1012.43 1013.48 1014.26 1014.02 1013.78 1013.49 1011.50 1011.83 1011.75 1011.17 1010.12 1010.54 1009.43 1010.80 1011.26 1011.43 1011.54 1012.32 1012.99 1013.13 1013.20 1013.78 1014.41 1014.76 1015.57 1016.53 1017.39 1018.21 1018.96 1019.91 1020.70 1021.56 1022.28 1023.28 1023.73 1024.22 1024.87 1025.51 1025.95 1026.59 1027.42 1027.75 1027.82
1011.57 1012.93 1013.85 1015.16 1015.16 1014.34 1010.94 1010.75 1010.51 1010.63 1009.90 1009.62 1009.12 1009.80 1010.07 1010.38 1010.43 1010.80 1011.24 1011.59 1011.60 1012.05 1012.56 1013.17 1013.95 1014.60 1015.36 1016.25 1017.34 1018.39 1019.27 1020.15 1021.02 1022.01 1022.89 1023.49 1024.04 1024.67 1025.45 1026.06 1026.71 1027.37 1027.69 1027.84
1011.71 1012.74 1014.75 1015.60 1015.62 1013.73 1011.48 1010.86 1010.86 1010.81 1009.38 1009.01 1008.80 1009.65 1010.02 1010.44 1010.68 1010.23 1010.41 1010.55 1010.31 1010.42 1010.45 1010.91 1011.48 1012.37 1014.07 1015.17 1016.49 1017.87 1019.07 1020.10 1020.99 1021.81 1022.70 1023.43 1023.91 1024.66 1025.28 1026.06 1026.73 1027.17 1027.51 1027.96
1012.33 1012.40 1013.70 1015.77 1015.52 1013.79 1008.55 1010.24 1010.01 1010.75 1009.25 1008.27 1008.66 1009.21 1010.05 1010.61 1010.76 1008.33 1009.19 1009.40 1009.61 1009.76 1010.11 1010.74 1011.33 1012.31 1013.58 1014.63 1015.68 1017.05 1018.10 1019.20 1020.21 1020.99 1021.89 1023.03 1023.70 1024.26 1025.07 1025.81 1026.59 1026.96 1027.38 1027.85
1012.91 1013.16 1013.89 1015.15 1014.61 1012.46 1010.62 1009.88 1010.14 1011.23 1008.30 1007.85 1008.28 1008.55 1009.30 1009.93 1009.02 1009.34 1009.21 1009.36 1009.52 1009.64 1010.12 1010.76 1011.41 1011.79 1012.60 1014.18 1015.28 1016.31 1017.37 1018.05 1019.00 1020.41 1021.62 1022.71 1023.51 1024.25 1024.95 1025.91 1026.51 1026.92 1027.45 1027.86
1011.26 1012.47 1013.56 1014.09 1014.12 1012.12 1009.93 1010.53 1009.93 1008.90 1008.71 1008.96 1009.11 1009.51 1009.74 1009.76 1009.90 1009.93 1010.06 1010.00 1010.22 1010.40 1010.44 1010.50 1011.04 1011.61 1012.51 1013.63 1014.69 1015.89 1016.58 1017.61 1019.00 1020.22 1021.56 1022.64 1023.60 1024.58 1025.23 1025.97 1026.64 1027.08 1027.66 1028.27
1010.50 1009.64 1010.51 1011.19 1010.10 1009.39 1009.51 1009.31 1009.20 1009.16 1009.30 1009.50 1009.69 1010.12 1010.50 1010.65 1010.73 1010.84 1010.96 1010.89 1010.81 1011.02 1011.22 1011.21 1011.47 1012.20 1013.00 1013.64 1014.16 1014.98 1015.94 1017.21 1018.62 1020.17 1021.48 1022.73 1023.80 1024.57 1025.32 1026.00 1026.63 1027.24 1027.78 1027.91
1010.01 1009.69 1009.70 1010.07 1009.38 1009.20 1009.26 1009.55 1009.58 1009.62 1009.56 1009.86 1010.09 1010.38 1010.68 1011.29 1011.51 1011.52 1011.80 1011.92 1011.99 1012.12 1012.21 1012.17 1012.62 1013.21 1013.69 1013.97 1014.31 1014.89 1016.02 1017.09 1018.48 1019.93 1021.39 1022.65 1023.62 1024.63 1025.39 1025.89 1026.44 1027.06 1027.47 1027.63
1010.40 1010.11 1010.03 1010.00 1009.69 1009.70 1009.63 1009.83 1009.93 1010.14 1010.31 1010.32 1010.50 1010.79 1011.16 1011.66 1011.96 1012.21 1012.41 1012.62 1012.79 1012.90 1013.01 1012.98 1013.10 1013.48 1014.00 1014.30 1014.73 1015.29 1016.15 1017.04 1018.33 1019.68 1021.17 1022.44 1023.41 1024.19 1025.12 1025.81 1026.22 1026.71 1026.92 1026.87
1010.66 1010.26 1010.19 1009.65 1009.59 1009.46 1009.99 1010.02 1010.22 1010.53 1010.83 1011.00 1011.14 1011.40 1011.69 1012.27 1012.57 1012.82 1012.98 1013.12 1013.25 1013.36 1013.37 1013.49 1013.74 1013.95 1014.25 1014.58 1015.23 1015.82 1016.34 1016.97 1018.13 1019.68 1021.08 1022.10 1023.07 1024.05 1024.81 1025.59 1026.26 1026.55 1026.51 1026.45
Thickness
5595 5592 5604 5606 5618 5607 5607 5610 5615 5625 5636 5639 5638 5651 5662 5666 5666 5665 5669 5675 5681 5690 5699 5702 5705 5703 5701 5700 5702 5701 5699 5695 5689 5685 5681 5679 5679 5676 5674 5673 5670 5669 5665 5662
5587 5605 5603 5601 5604 5599 5597 5608 5608 5617 5626 5630 5633 5643 5655 5656 5661 5670 5673 5672 5677 5684 5691 5696 5701 5701 5700 5701 5702 5700 5699 5697 5695 5690 5685 5681 5681 5677 5674 5672 5669 5667 5664 5661
5588 5599 5596 5597 5593 5591 5592 5609 5602 5616 5616 5619 5626 5629 5646 5657 5658 5663 5664 5671 5674 5682 5687 5689 5694 5697 5696 5698 5700 5699 5697 5694 5693 5690 5684 5677 5676 5673 5670 5668 5665 5662 5662 5660
5570 5586 5585 5587 5589 5594 5586 5604 5600 5597 5604 5597 5618 5599 5629 5645 5654 5655 5664 5667 5675 5681 5685 5691 5689 5693 5693 5691 5695 5695 5694 5691 5688 5685 5681 5676 5672 5668 5668 5666 5664 5661 5655 5651
5581 5580 5578 5579 5597 5589 5588 5595 5593 5590 5593 5600 5599 5593 5621 5636 5644 5653 5661 5671 5678 5680 5682 5686 5686 5687 5686 5683 5686 5688 5688 5687 5685 5681 5679 5675 5670 5668 5667 5661 5654 5648 5644 5641
5572 5580 5580 5591 5586 5581 5580 5578 5577 5571 5576 5572 5601 5597 5615 5628 5646 5663 5679 5677 5678 5679 5675 5676 5677 5681 5680 5678 5678 5678 5680 5681 5682 5677 5676 5674 5670 5663 5660 5654 5646 5639 5634 5630
5565 5572 5582 5585 5577 5576 5579 5575 5554 5556 5552 5583 5582 5582 5632 5642 5647 5657 5669 5676 5676 5672 5669 5668 5668 5669 5672 5673 5672 5672 5674 5674 5678 5678 5674 5671 5667 5661 5655 5647 5638 5631 5626 5620
5562 5559 5570 5583 5585 5583 5579 5580 5550 5547 5543 5569 5568 5580 5610 5643 5649 5652 5662 5668 5666 5669 5669 5667 5665 5665 5666 5666 5664 5666 5669 5668 5671 5674 5671 5666 5660 5656 5645 5639 5630 5621 5614 5608
5561 5567 5577 5575 5582 5586 5567 5563 5587 5553 5482 5542 5569 5594 5619 5642 5645 5654 5657 5656 5664 5666 5668 5666 5660 5656 5657 5657 5656 5657 5661 5659 5661 5663 5660 5655 5649 5647 5636 5627 5619 5612 5604 5598
5567 5557 5563 5566 5575 5578 5582 5588 5569 5553 5531 5536 5567 5576 5603 5627 5644 5653 5654 5658 5660 5658 5656 5656 5651 5647 5647 5647 5646 5647 5649 5648 5647 5648 5648 5643 5637 5635 5626 5617 5606 5600 5594 5589
5561 5567 5548 5556 5561 5569 5569 5567 5569 5576 5555 5551 5541 5580 5611 5635 5652 5661 5663 5654 5646 5647 5645 5642 5637 5634 5636 5638 5636 5636 5637 5636 5634 5633 5631 5627 5623 5620 5611 5604 5592 5587 5582 5576
5558 5548 5528 5552 5561 5565 5570 5579 5586 5572 5563 5542 5550 5575 5625 5626 5634 5644 5646 5642 5636 5634 5629 5628 5624 5624 5623 5625 5624 5625 5626 5625 5624 5623 5620 5615 5611 5604 5596 5586 5580 5575 5569 5564
5555 5535 5504 5534 5548 5553 5558 5566 5578 5569 5555 5553 5546 5598 5616 5620 5627 5636 5637 5631 5629 5622 5615 5615 5613 5612 5613 5612 5612 5611 5611 5610 5609 5610 5607 5602 5596 5591 5584 5573 5568 5562 5557 5552
5555 5539 5548 5554 5573 5560 5553 5559 5565 5569 5551 5558 5562 5595 5608 5619 5621 5625 5622 5618 5614 5613 5612 5608 5606 5604 5601 5601 5602 5601 5599 5597 5596 5596 5591 5587 5581 5576 5569 5560 5555 5549 5542 5536
5544 5530 5537 5555 5566 5567 5568 5566 5564 5561 5580 5566 5615 5583 5607 5618 5620 5618 5612 5607 5607 5607 5606 5604 5600 5596 5593 5592 5590 5589 5587 5583 5582 5580 5575 5570 5566 5560 5555 5549 5543 5536 5529 5523
5532 5513 5538 5533 5546 5554 5557 5557 5558 5566 5575 5583 5583 5592 5604 5607 5601 5601 5604 5600 5602 5604 5605 5603 5599 5594 5590 5589 5586 5582 5578 5573 5569 5564 5559 5556 5555 5550 5543 5537 5530 5523 5515 5511
5530 5503 5493 5511 5521 5529 5524 5553 5557 5566 5577 5593 5576 5612 5596 5597 5600 5604 5598 5596 5605 5612 5611 5607 5605 5599 5593 5587 5582 5578 5571 5564 5558 5554 5547 5544 5541 5535 5528 5522 5515 5506 5501 5497
5513 5524 5497 5476 5497 5501 5565 5563 5568 5569 5579 5586 5594 5591 5592 5593 5598 5598 5597 5599 5609 5612 5609 5606 5601 5597 5591 5585 5578 5571 5565 5559 5553 5546 5540 5534 5530 5524 5516 5509 5501 5492 5487 5481
5498 5502 5468 5490 5453 5508 5546 5550 5555 5555 5576 5579 5587 5582 5581 5584 5584 5591 5596 5603 5611 5611 5615 5613 5609 5603 5589 5582 5573 5562 5552 5546 5540 5534 5528 5522 5518 5510 5502 5494 5485 5478 5473 5465
5491 5498 5502 5409 5490 5509 5588 5549 5552 5554 5552 5597 5585 5581 5570 5565 5562 5607 5603 5598 5600 5600 5601 5597 5594 5586 5579 5572 5563 5553 5546 5539 5533 5527 5520 5510 5503 5497 5489 5480 5471 5465 5458 5452
5470 5464 5495 5411 5448 5481 5516 5541 5539 5522 5582 5569 5580 5580 5563 5565 5584 5576 5580 5586 5583 5584 5582 5580 5576 5577 5573 5559 5552 5546 5538 5535 5528 5515 5505 5495 5488 5481 5473 5463 5455 5449 5443 5438
5491 5480 5466 5429 5434 5508 5517 5515 5536 5560 5551 5551 5552 5555 5553 5551 5550 5553 5555 5560 5561 5564 5564 5567 5566 5563 5558 5549 5541 5534 5530 5522 5509 5498 5488 5479 5471 5462 5454 5446 5438 5433 5428 5421
5498 5506 5498 5495 5507 5522 5507 5522 5523 5525 5531 5535 5536 5533 5534 5536 5540 5537 5538 5538 5541 5545 5546 5547 5549 5542 5537 5534 5532 5527 5520 5507 5496 5483 5472 5462 5453 5445 5437 5431 5424 5418 5413 5410
5475 5478 5488 5504 5506 5510 5500 5501 5506 5511 5516 5517 5520 5519 5519 5519 5519 5522 5522 5522 5524 5517 5519 5521 5521 5518 5516 5515 5515 5513 5500 5491 5481 5470 5458 5448 5440 5431 5424 5419 5413 5407 5401 5396
5457 5464 5466 5467 5486 5486 5488 5488 5493 5495 5496 5501 5504 5505 5505 5503 5504 5507 5504 5499 5500 5500 5501 5504 5506 5505 5502 5500 5496 5492 5486 5479 5470 5459 5446 5436 5429 5421 5413 5406 5402 5395 5390 5388
5444 5458 5465 5465 5471 5477 5477 5481 5479 5481 5484 5486 5488 5491 5490 5487 5487 5489 5485 5486 5486 5485 5486 5489 5488 5490 5487 5483 5478 5474 5470 5466 5456 5443 5432 5424 5416 5408 5401 5395 5386 5382 5378 5375